Dewpoint
54 54 55 55 55 55 55 55 55 55 55 55 55 55 55 55 56 56 56 56 56 56 56 56 57 57 56 55 55 54 56 52 48 48 45 38 47 51 61 62 62 64 72 64 61 55 54 59 62 64 61 60 61 63 65 63 61 61 56 54 53 54 53 53 54 55 60 61 63 64 66 65 63 66 67 68 65 65 64 63 63 64 64 65 66 66 66 66
54 54 55 55 55 55 55 55 55 54 54 55 54 54 55 55 55 55 55 56 56 56 56 56 56 57 57 55 55 55 54 52 50 49 45 46 55 57 62 64 64 66 69 62 57 52 50 53 59 63 59 53 56 59 64 61 62 57 56 55 52 54 53 53 55 56 58 60 64 64 67 66 65 65 67 63 63 63 62 62 63 63 64 66 66 66 66 66
55 54 54 55 55 55 55 54 54 54 54 54 54 54 55 55 55 55 55 55 56 56 56 56 56 57 57 55 54 56 54 51 51 48 47 61 57 57 63 64 65 70 60 60 56 49 45 52 59 57 51 47 51 54 61 55 61 59 56 53 53 56 55 56 57 59 59 64 64 64 65 65 67 66 68 63 62 61 61 60 61 61 62 64 65 65 65 65
55 54 54 54 55 55 55 54 54 54 54 54 54 54 54 55 55 55 54 55 55 56 56 56 56 57 57 56 56 55 53 50 36 44 50 65 62 61 63 65 66 69 61 57 52 47 51 54 53 45 43 40 44 51 58 55 58 57 57 54 53 56 55 56 57 61 62 65 65 64 65 64 67 67 67 64 61 61 62 61 61 61 62 63 64 64 65 65
54 54 54 54 54 55 54 54 54 54 54 54 54 54 54 54 54 54 54 55 55 55 55 56 56 58 57 57 57 55 50 35 35 45 49 68 63 63 62 66 67 62 59 51 49 50 50 49 45 45 40 36 44 46 51 53 55 56 55 56 56 56 54 55 54 60 63 64 66 65 63 63 68 68 66 64 61 60 62 61 62 62 63 63 63 64 65 65
54 54 53 53 54 54 54 53 53 54 54 54 54 54 54 54 54 54 54 54 55 55 55 56 56 57 58 58 55 54 40 5 36 32 70 67 64 64 65 66 66 56 51 48 46 47 47 47 42 35 37 39 43 44 46 50 53 49 52 53 54 54 53 54 53 62 63 65 65 64 64 66 65 65 66 64 64 65 65 62 63 63 63 63 64 64 64 64
54 54 53 53 54 54 54 53 53 53 53 54 54 54 54 54 54 54 54 54 54 55 55 56 56 58 58 57 54 49 30 22 39 58 67 65 65 65 68 66 64 52 48 45 44 43 43 43 38 35 37 40 44 44 47 46 50 50 49 50 50 50 50 51 50 60 62 63 65 64 65 64 64 62 66 63 68 67 65 63 64 64 64 64 64 64 64 64
54 53 53 53 54 54 53 53 53 53 53 54 54 54 54 54 54 54 54 54 54 55 55 56 56 57 58 53 48 28 26 17 25 57 67 65 64 67 64 52 52 48 43 43 42 40 39 37 31 43 33 24 41 42 47 46 47 48 48 50 50 51 50 50 50 60 63 63 66 65 63 64 63 64 64 64 66 65 65 63 63 64 64 64 64 64 64 64
53 53 53 54 54 54 53 54 54 53 54 54 54 54 54 54 54 54 54 54 55 55 55 56 56 58 58 53 34 19 12 27 33 63 60 59 63 60 48 43 47 45 40 40 38 40 35 36 39 34 26 34 47 39 46 48 46 48 48 50 50 49 49 48 51 59 62 63 64 64 63 63 64 66 64 66 67 67 65 63 63 64 64 63 64 63 64 64
53 53 53 54 54 53 54 54 54 54 54 54 54 54 54 54 54 54 54 54 55 55 55 56 57 58 56 47 38 9 21 36 62 61 56 61 58 55 49 41 42 41 37 36 36 39 32 37 38 44 44 43 47 43 46 48 47 48 48 48 47 46 44 44 45 59 63 63 64 62 63 63 65 64 60 66 66 66 64 63 64 63 63 63 63 64 64 64
53 53 53 53 53 53 53 54 54 54 54 54 53 54 54 54 54 54 54 55 55 55 55 56 58 57 46 48 21 6 32 62 66 56 59 60 57 53 48 40 37 39 37 35 35 36 35 38 42 44 44 42 46 44 44 46 44 42 41 39 38 37 37 40 47 60 62 63 64 62 63 63 65 63 61 65 67 65 64 64 64 62 63 63 63 64 65 65
53 53 53 53 53 53 53 53 53 54 54 53 54 54 54 54 54 54 54 55 55 56 56 57 59 55 52 39 33 17 37 61 61 55 60 59 55 52 46 40 37 36 36 35 34 35 37 38 40 43 39 42 46 42 42 38 37 37 37 36 37 35 43 59 56 60 61 62 63 63 62 61 62 61 63 65 66 66 64 64 64 62 63 63 63 63 65 64
53 53 53 53 53 53 53 53 53 54 53 53 54 54 54 54 54 54 54 54 55 56 56 57 59 53 50 39 40 38 49 59 55 56 54 52 52 55 49 43 40 38 35 36 33 33 34 39 39 43 36 37 40 42 37 37 38 38 36 34 34 33 36 60 61 62 60 62 62 61 53 56 60 61 63 65 65 64 64 63 63 63 62 62 62 63 63 64
53 53 53 53 53 53 53 53 54 53 53 54 54 53 54 54 55 54 54 54 55 56 57 59 56 52 46 36 39 44 44 46 56 53 51 51 49 54 53 48 44 42 39 37 35 32 30 32 36 36 36 35 37 37 37 37 31 36 29 26 29 33 34 60 60 62 58 62 62 60 53 52 59 61 64 64 65 64 63 63 62 63 63 62 62 62 63 63
53 53 52 53 53 53 53 53 53 54 53 53 53 53 54 54 56 55 55 55 56 58 59 59 55 51 43 40 45 49 59 48 53 50 53 47 50 50 53 52 46 44 41 38 37 34 30 29 32 36 37 38 38 38 37 37 35 30 33 33 24 30 35 59 61 61 57 61 62 58 54 54 55 60 63 64 65 65 62 62 62 62 62 61 62 62 62 63
53 53 53 53 53 53 53 53 53 53 53 53 53 53 54 58 57 56 56 56 57 60 58 52 52 51 43 37 49 60 51 44 48 55 54 49 47 48 53 52 49 46 43 40 38 35 31 29 34 35 36 37 38 38 37 37 34 28 32 30 27 25 39 53 60 61 60 60 61 58 53 53 59 62 63 64 64 63 63 62 61 62 63 62 61 61 62 63
53 53 53 53 53 53 53 53 53 53 53 53 53 53 55 59 58 57 58 59 58 58 53 49 52 52 31 38 40 39 41 42 44 55 56 55 51 53 51 50 48 45 43 41 39 33 31 29 28 34 35 35 38 37 38 37 35 32 28 30 23 25 47 41 59 60 60 59 58 59 57 55 56 61 63 63 63 63 62 61 61 62 62 62 61 61 61 63
53 53 53 53 53 53 53 53 53 53 53 52 52 53 52 57 59 59 59 59 58 57 57 54 52 42 28 26 27 35 36 38 35 51 56 56 54 51 50 49 48 44 41 38 38 31 29 26 29 33 36 37 36 36 37 36 35 31 31 29 22 32 52 49 49 58 59 59 57 58 57 57 58 61 62 62 62 62 62 62 62 61 62 62 61 61 61 62
53 53 53 53 53 53 53 53 53 53 52 52 53 55 56 58 51 53 54 56 47 41 25 42 37 30 16 26 36 37 37 39 32 52 53 53 53 49 49 48 45 41 37 32 33 31 28 29 27 31 35 37 38 36 37 30 35 31 28 26 23 24 45 43 48 58 59 58 56 56 55 56 57 60 62 62 62 62 61 61 62 61 62 62 61 61 62 62
53 54 53 54 54 54 53 53 53 52 52 51 49 52 46 36 31 39 46 50 39 30 33 35 41 43 38 36 33 33 36 22 27 21 51 52 49 47 47 46 44 42 35 29 33 30 28 27 26 30 35 38 37 37 37 36 28 27 26 25 25 25 27 27 25 44 59 57 56 56 56 56 56 58 61 62 62 62 61 61 62 62 62 61 61 61 62 63
53 53 54 53 54 54 53 53 53 52 51 50 48 41 32 33 24 21 31 31 37 40 36 34 40 36 28 34 36 31 21 19 15 27 51 52 46 44 43 44 42 38 33 32 30 34 31 30 27 31 34 36 37 37 37 35 28 30 30 29 26 26 22 25 25 38 57 53 51 56 56 56 57 58 60 62 61 61 61 61 62 62 62 62 62 61 62 63
53 54 54 54 53 53 53 53 52 52 51 48 45 34 35 37 37 35 33 27 29 29 34 35 33 34 36 37 38 33 27 18 13 17 31 45 43 33 37 41 38 33 35 32 34 30 28 27 29 34 35 37 35 35 35 35 31 29 32 30 29 27 27 25 25 23 52 52 46 54 54 53 54 56 59 61 61 61 61 62 62 63 62 62 62 61 62 62
54 54 54 54 54 53 53 52 52 51 49 45 40 36 37 39 40 41 34 30 28 29 28 29 28 29 29 29 27 35 25 16 7 15 32 32 40 24 34 38 36 32 34 32 28 28 26 25 34 36 37 37 34 31 30 30 29 30 30 31 29 26 22 20 25 44 50 50 40 47 46 44 50 57 59 60 60 62 62 62 63 64 63 62 62 62 61 62
54 54 54 54 53 53 53 51 51 48 46 44 41 38 39 41 41 33 31 28 27 32 26 27 27 26 25 22 24 27 17 16 11 8 37 27 28 20 31 35 37 33 31 32 31 28 29 32 38 38 38 38 37 33 32 31 31 28 30 31 30 28 27 24 22 24 47 47 51 48 41 39 45 47 54 59 61 61 62 62 62 64 64 63 63 62 61 61
54 54 54 53 53 52 51 51 46 44 46 44 42 43 42 43 44 38 29 31 27 27 30 26 28 26 22 13 16 19 11 8 10 13 43 22 25 22 21 35 36 34 34 34 34 32 33 36 39 38 37 37 37 35 34 35 33 31 28 30 31 29 29 24 24 24 23 23 43 43 29 29 47 52 50 57 60 61 62 62 62 62 63 63 62 62 62 61
54 54 54 54 53 52 51 44 42 45 45 38 38 40 42 42 42 42 31 27 15 17 22 20 16 17 13 11 11 8 7 7 10 10 30 33 42 22 29 29 33 30 35 36 33 32 33 34 37 37 37 36 37 36 35 35 34 32 32 30 30 30 28 27 25 24 23 21 37 40 28 25 43 46 51 57 58 59 61 61 61 62 62 62 62 62 62 61
54 54 54 53 53 51 44 36 47 46 38 37 40 42 42 42 48 35 29 24 15 16 16 16 10 13 14 11 9 8 3 9 13 16 17 22 26 21 25 25 26 29 35 35 36 33 34 32 32 34 35 36 35 36 33 34 34 32 31 29 29 28 28 27 27 26 26 24 24 34 29 28 28 41 54 57 58 59 60 61 61 61 62 60 62 62 62 62
54 54 53 52 51 51 48 49 45 38 36 38 43 43 44 46 44 36 29 18 14 21 9 13 12 14 11 10 10 5 9 11 15 14 16 18 30 20 23 25 28 29 31 33 28 31 33 31 31 31 31 31 33 33 32 33 34 32 30 28 28 28 28 28 28 27 24 23 24 30 43 33 35 46 57 57 55 56 57 59 60 61 61 61 62 62 62 62
54 53 53 52 51 50 50 49 47 37 40 44 45 44 44 44 35 31 27 13 15 14 14 10 15 12 11 9 8 11 8 13 14 16 18 20 22 17 20 20 23 21 23 33 28 25 24 32 32 32 32 32 31 30 31 32 32 31 28 27 27 25 26 26 27 26 26 25 23 31 39 30 34 45 51 55 52 49 50 51 54 59 61 61 61 62 62 62
53 53 52 51 50 50 50 49 47 45 48 47 46 46 44 37 33 26 21 10 17 8 13 13 12 10 11 7 10 15 17 17 17 18 19 20 21 21 18 18 15 23 25 24 30 25 14 23 31 29 30 30 30 30 31 31 31 30 26 26 24 24 26 28 25 27 26 23 24 21 36 29 30 44 47 48 48 50 52 53 53 56 60 61 62 62 62 62
53 52 51 51 49 48 48 42 42 46 47 48 47 41 37 36 28 21 13 13 18 15 15 15 13 13 8 7 12 17 18 18 18 19 17 20 19 21 21 17 21 14 14 16 25 15 18 24 20 16 24 15 21 20 29 31 30 29 28 28 27 28 27 29 26 28 23 21 25 22 33 38 26 39 48 49 51 51 52 53 54 54 55 60 62 61 61 62
51 50 50 51 50 49 40 37 39 47 49 49 44 38 32 19 23 18 17 23 12 14 14 15 16 15 18 18 18 17 16 18 19 18 17 18 19 19 20 21 22 17 12 16 18 16 13 12 12 12 36 14 14 14 21 29 29 27 26 27 25 28 26 24 24 22 22 21 23 23 38 37 42 47 49 50 51 51 53 53 53 54 56 57 60 61 62 62
50 50 49 50 51 49 48 46 50 50 51 46 40 37 26 22 17 21 22 17 14 18 16 19 13 11 15 15 15 18 19 17 19 18 19 19 18 18 20 20 21 17 17 18 14 15 13 16 11 11 12 17 15 14 18 22 28 27 26 27 26 23 22 22 22 25 22 22 20 24 37 38 44 46 50 49 50 51 52 53 54 55 56 57 58 61 61 62
50 49 51 51 51 50 50 53 51 50 47 44 38 26 24 18 18 29 22 18 16 20 18 15 15 15 15 13 15 14 16 18 19 19 19 19 19 19 19 20 22 19 16 14 13 15 15 13 11 13 11 14 16 15 13 18 25 26 26 26 26 26 21 21 20 18 17 20 17 25 34 36 40 43 50 49 49 51 52 53 54 55 56 58 58 59 61 61
49 50 51 52 52 52 52 51 52 50 42 31 24 23 19 19 22 18 18 18 20 19 16 16 15 15 15 16 18 17 18 16 18 19 19 19 18 20 20 19 22 23 19 15 15 18 12 12 11 14 14 14 16 17 17 15 23 22 23 25 26 24 26 18 21 19 19 18 21 33 31 40 44 49 50 50 49 51 52 53 54 54 55 57 57 59 59 60
50 51 51 50 49 46 52 52 51 49 35 26 23 22 17 18 17 17 17 22 20 16 16 15 14 14 16 16 20 19 19 18 18 19 19 20 21 20 22 20 21 23 20 15 17 13 21 10 12 17 18 17 18 19 18 18 16 20 22 23 22 23 21 28 27 25 21 21 23 33 39 42 46 43 49 47 49 50 51 52 52 53 54 56 56 57 58 59
51 50 42 41 34 45 52 51 50 42 36 25 22 19 21 20 19 19 23 19 18 18 16 12 13 14 15 17 19 21 18 19 18 19 18 20 18 22 23 23 22 24 24 20 18 19 15 10 12 16 14 17 19 20 17 17 16 20 19 22 23 24 23 27 18 27 21 14 32 40 37 41 36 35 49 47 48 49 50 51 51 53 54 54 55 56 58 59
50 50 47 36 34 46 51 51 46 38 34 26 24 29 24 18 20 20 21 21 17 17 15 16 16 17 17 19 18 21 20 17 18 19 18 20 16 23 25 24 23 26 25 25 19 21 18 9 10 15 16 17 19 17 17 17 17 16 16 18 19 21 22 31 28 19 18 16 35 40 42 41 43 45 47 46 48 48 49 50 50 51 52 53 54 55 57 59
49 38 32 31 35 45 50 50 36 35 27 24 26 24 23 19 20 21 22 23 19 17 16 16 17 21 17 18 20 22 21 15 19 20 20 19 17 23 26 26 24 26 26 25 20 25 23 12 10 14 17 17 18 17 18 16 16 17 17 16 17 20 33 25 25 28 25 26 32 36 40 38 38 43 48 47 48 48 48 47 47 49 50 52 54 54 55 57
42 37 27 31 36 38 46 46 27 30 26 22 24 22 24 18 20 22 23 23 21 19 18 19 20 21 22 21 20 20 23 22 21 21 21 22 19 24 27 28 27 27 27 26 26 27 20 26 12 13 19 18 17 17 16 17 16 15 16 17 18 19 18 22 25 25 23 30 30 36 34 37 40 48 49 48 48 48 47 46 46 47 48 49 51 53 55 56
43 35 31 34 36 39 37 28 28 25 24 25 22 22 27 23 21 23 24 23 22 24 23 23 21 18 20 21 20 23 22 23 23 22 22 24 24 22 26 29 29 28 28 24 22 27 24 20 17 18 17 17 16 20 18 18 18 17 16 15 15 17 22 21 22 23 25 30 33 31 35 38 44 53 51 49 48 47 47 46 46 46 46 48 49 51 53 54
40 28 27 33 37 32 28 23 27 32 23 22 21 22 25 34 23 23 24 25 22 23 25 25 26 25 24 23 23 25 24 23 24 25 26 25 27 27 27 29 31 30 26 19 21 26 24 29 22 18 18 17 19 22 24 21 19 19 19 18 17 16 19 27 21 24 27 30 36 38 35 38 48 53 53 50 48 47 47 47 46 46 47 48 48 49 51 53
38 28 35 40 37 29 25 23 30 27 22 21 23 23 23 24 24 24 24 26 22 22 24 25 25 26 26 25 25 24 25 24 25 24 25 26 25 26 29 30 33 31 28 24 28 22 36 26 22 20 22 20 22 23 23 23 21 19 18 20 19 17 16 18 23 29 31 32 35 34 35 38 49 55 52 51 50 48 49 48 47 46 47 48 49 49 50 51
45 36 33 35 36 31 27 23 23 23 24 25 25 23 25 25 24 24 25 26 25 23 25 25 25 27 27 27 26 23 26 23 25 25 25 28 23 27 27 30 34 30 34 24 27 21 18 25 29 21 21 20 20 21 18 22 22 20 18 19 21 20 19 18 26 30 29 24 24 33 31 35 50 54 52 51 49 48 48 48 47 47 47 47 49 50 49 51
43 41 45 38 36 31 24 27 26 24 24 25 25 25 24 23 25 25 25 25 26 26 25 25 27 27 25 27 26 26 26 25 24 26 25 26 23 28 26 28 34 32 33 37 36 28 27 27 28 15 16 14 14 13 16 19 21 21 21 20 19 19 21 24 24 28 25 29 34 29 30 42 50 51 51 52 50 48 48 48 48 48 48 48 48 49 50 50
33 29 32 30 34 31 33 34 28 25 28 29 25 25 26 24 24 25 26 24 27 27 27 27 27 26 26 26 26 26 25 26 25 27 27 23 24 24 27 28 28 34 35 40 38 31 28 29 31 30 24 19 26 27 23 27 21 17 18 17 17 19 21 24 28 25 23 27 28 34 39 44 45 47 48 49 49 48 47 48 48 48 48 48 49 49 49 50
39 34 36 32 35 30 29 30 30 29 27 30 29 26 26 26 27 22 28 22 26 26 26 28 29 26 25 26 27 25 27 25 27 26 27 24 25 26 30 28 27 35 42 32 37 29 32 24 26 30 27 25 25 25 24 25 20 20 19 17 18 19 22 23 21 21 30 29 26 36 42 43 44 46 47 47 48 49 49 48 48 48 48 48 48 49 50 48
34 36 38 38 26 29 30 28 33 31 32 29 30 30 27 26 26 26 24 26 28 28 24 25 27 30 30 28 30 25 29 29 30 27 30 29 29 25 22 26 27 36 34 27 32 29 27 21 25 26 25 26 25 25 24 22 21 21 19 19 18 20 22 24 25 23 27 27 27 39 43 43 44 45 46 46 46 48 48 48 48 48 48 48 49 48 47 47
42 41 38 40 29 31 32 34 33 31 33 35 34 29 27 27 25 27 27 23 23 27 31 25 27 29 31 35 30 29 34 24 25 31 30 27 28 28 23 26 27 29 29 28 31 37 29 23 26 26 26 24 25 26 26 24 21 19 22 22 21 19 21 22 26 30 31 38 40 42 44 43 44 45 45 46 46 46 49 49 48 48 48 49 48 48 47 47
43 37 32 38 40 40 40 32 34 31 29 37 29 31 31 30 26 27 27 25 24 24 32 27 28 30 31 32 36 27 29 31 28 24 30 30 28 31 27 29 27 29 29 31 32 33 31 28 26 25 24 24 25 26 26 25 22 21 21 21 22 22 24 26 27 34 38 41 41 42 42 43 45 46 46 47 47 47 47 48 47 49 48 47 47 48 48 48
46 46 47 42 33 37 41 34 34 35 29 33 30 33 31 29 28 30 29 34 28 28 28 27 29 30 32 31 31 30 32 34 33 26 31 29 26 28 27 28 28 28 31 31 32 32 30 30 28 26 20 19 24 26 26 24 21 20 20 22 23 23 24 28 32 41 40 41 40 41 41 41 45 46 47 48 47 47 47 47 48 47 46 47 46 47 48 48
49 48 45 44 35 39 33 33 34 32 28 33 34 34 31 31 32 34 30 34 36 34 30 29 33 30 32 32 31 32 31 32 29 30 34 28 29 32 33 29 28 30 30 30 36 30 32 28 25 23 16 20 24 28 28 22 20 16 20 23 27 25 28 34 42 43 44 42 40 37 38 43 46 47 46 46 46 45 45 44 45 47 47 46 46 46 46 48